Volver al catálogo

STARLINK-31870

ActivoComunicacionesVLEO
NORAD 59787·PAYLOAD·🇺🇸 United States

Lanzado May 18, 2024 desde Cape Canaveral Space Force Station

Loading…

Próximos Pases (próximas 24 horas)

TLE

ActualizadoSource: CelesTrak SupGP

Época: Sep 15, 2026, 02:26 UTC

1 59787C 24093F   26258.10187500 -.00030692  00000+0 -11117-2 0  2581
2 59787  43.0021 218.8181 0000792 254.8514 261.9993 15.27592134    13

Sigue STARLINK-31870 en tiempo real con AllMySat

Download on the App Store